Location: Street
(51.1247°N, 2.7429°W)
Time: 10:51:10
(UTC+00:00)

Transit 4A - Visible Passes

Search period start: 30 November 2020 00:00
Search period end: 10 December 2020 00:00
Orbit: 862 x 982 km, 66.8° (Epoch: 29 November)

Date Brightness Start Highest point End Pass type
(mag) Time Alt. Az. Time Alt. Az. Time Alt. Az.
30 Nov 11.1 06:19:01 10° SE 06:22:28 15° ESE 06:25:55 10° ENE visible
30 Nov 9.3 16:59:51 10° NW 17:05:50 44° WSW 17:11:40 10° S visible
01 Dec 10.8 06:26:45 10° SSE 06:31:25 22° ESE 06:36:07 10° ENE visible
01 Dec 10.0 17:09:26 10° NW 17:14:57 32° WSW 17:20:20 10° S visible
02 Dec 10.2 06:35:02 10° S 06:40:27 30° ESE 06:45:55 10° NE visible
02 Dec 10.6 17:19:12 10° WNW 17:23:59 23° WSW 17:28:41 10° SSW visible
03 Dec 9.5 06:43:40 10° S 06:49:34 42° ESE 06:55:32 10° NE visible
03 Dec 11.0 17:29:19 10° WNW 17:32:57 16° WSW 17:36:33 10° SW visible
04 Dec 11.2 05:11:37 10° ESE 05:13:42 12° E 05:15:47 10° E visible
04 Dec 8.8 06:52:32 10° SSW 06:58:45 57° ESE 07:05:02 10° NE visible
04 Dec 11.5 17:40:42 10° W 17:41:51 11° W 17:43:00 10° WSW visible
05 Dec 10.8 05:18:38 10° SE 05:22:37 17° ESE 05:26:36 10° ENE visible
05 Dec 8.3 07:01:39 10° SSW 07:08:00 76° ESE 07:14:27 10° NE visible
06 Dec 10.3 05:26:37 10° SSE 05:31:35 25° ESE 05:36:37 10° NE visible
06 Dec 8.0 07:10:57 10° SW 07:17:20 82° NW 07:23:49 10° NE visible
07 Dec 9.7 05:35:02 10° S 05:40:39 34° ESE 05:46:20 10° NE visible
07 Dec 8.1 07:20:24 10° SW 07:26:45 64° NW 07:33:10 10° NE visible
08 Dec 9.1 05:43:46 10° S 05:49:48 47° ESE 05:55:54 10° NE visible
09 Dec 10.8 04:10:52 10° SE 04:13:50 14° E 04:16:49 10° ENE visible
09 Dec 8.5 05:52:43 10° SSW 05:59:00 64° ESE 06:05:22 10° NE visible
